Regional Weather Roundup
Issued by NWS

Home | Current Version | Previous Version | Graphics & Text | Print | Product List | Glossary On
Versions: 1 2 3 4 5 6 7 8 9 10 11 12 13 14 15 16 17 18 19 20 21 22 23 24 25 26 27 28 29 30 31 32 33 34 35 36 37 38 39 40 41 42 43 44 45 46 47 48 49 50
000
ASUS43 KLOT 091800
RWRIL

ILLINOIS REGIONAL WEATHER ROUNDUP
NATIONAL WEATHER SERVICE CHICAGO/ROMEOVILLE IL
100 PM CDT WED JUL 09 2014

NOTE: "FAIR" INDICATES FEW OR NO CLOUDS BELOW 12,000 FEET WITH NO
SIGNIFICANT WEATHER AND/OR OBSTRUCTIONS TO VISIBILITY.

* THESE STATIONS ARE NOT UNDER NWS QUALITY CONTROL. THEY ALSO MAY NOT
  REPORT WEATHER SUCH AS PRECIPITATION OR FOG.

ILZ001-002-007-009-015-016-024-091900-
NORTHWEST ILLINOIS

CITY           SKY/WX    TMP DP  RH WIND       PRES   REMARKS
MOLINE         SUNNY     77  54  44 NW10G16   30.01S
6HR MIN TEMP:  65; 6HR MAX TEMP:  78;

STERLING*      MOSUNNY   77  57  50 N10       30.00S
$$

ILZ003-004-008-010-011-017-018-091900-
NORTH CENTRAL ILLINOIS

CITY           SKY/WX    TMP DP  RH WIND       PRES   REMARKS
ROCKFORD       MOSUNNY   73  54  51 NW12      29.99S
6HR MIN TEMP:  62; 6HR MAX TEMP:  75;

FREEPORT*      MOSUNNY   71  55  56 N10G16    30.02R
$$

ILZ005-006-012>014-019>023-091900-
NORTHEAST ILLINOIS

CITY           SKY/WX    TMP DP  RH WIND       PRES   REMARKS
CHICAGO-OHARE  MOSUNNY   78  55  44 NW12      29.95R
6HR MIN TEMP:  66; 6HR MAX TEMP:  78;

CHICAGO-MIDWAY MOSUNNY   78  56  46 NW7       29.95R
6HR MIN TEMP:  68; 6HR MAX TEMP:  79;

AURORA         MOSUNNY   75  58  55 W15       29.97S
6HR MIN TEMP:  60; 6HR MAX TEMP:  76;

LANSING*       MOSUNNY   76  53  46 NW9G18    29.95S
WAUKEGAN       PTSUNNY   68  59  73 E5        29.94S
6HR MIN TEMP:  62; 6HR MAX TEMP:  74;

DUPAGE AIRPORT MOSUNNY   77  57  50 NW12      29.96S
6HR MIN TEMP:  64; 6HR MAX TEMP:  77;

WHEELING       MOSUNNY   77  55  46 NW16      29.96R
6HR MIN TEMP:  66; 6HR MAX TEMP:  78;

NORTHERLY ISL    N/A     66  59  78 E7          N/A
$$

LMZ740>746-091900-
SOUTHERN LAKE MICHIGAN

STATION/POSITION SKY/WX   TEMP    WIND        PRES    VSBY  WAVE
                          AIR SEA DIR/SP/G                  HT/PER
                          (F)     (DEG/KT/KT) (MB)    (MI)  (FT/S)
SOUTHERN BUOY              56 56   90/  4/  4 1014.6R         1
WAUKEGAN HARBOR            63     110/  9/  9 1015.6S
HARRISON CRIB              65      90/  7/  8   N/A
BURNHAM HARBOR             66      90/  7/  7   N/A
CALUMET HARBOR             67      40/  7/  9 1015.4R
MICHIGAN CITY              65      10/  4/  6   N/A
$$

ILZ025>027-034>036-040-047-049-050-058-095>099-091900-
WEST-CENTRAL ILLINOIS

CITY           SKY/WX    TMP DP  RH WIND       PRES   REMARKS
QUINCY         SUNNY     77  55  46 NW10      30.03F
GALESBURG*     SUNNY     78  55  45 NW9G16    30.03S
MACOMB*        MOSUNNY   75  58  54 NW14      30.05S
$$

ILZ028>032-037-038-041>044-048-051>054-059>061-091900-
CENTRAL ILLINOIS

CITY           SKY/WX    TMP DP  RH WIND       PRES   REMARKS
DECATUR        MOSUNNY   80  59  48 W13G22    30.00S HX  81
PEORIA         MOSUNNY   78  56  46 W12G17    30.00S
6HR MIN TEMP:  66; 6HR MAX TEMP:  79;

SPRINGFIELD    MOSUNNY   80  61  52 NW10      30.01S HX  81
6HR MIN TEMP:  64; 6HR MAX TEMP:  81;

TAYLORVILLE    NOT AVBL
$$

ILZ033-039-045-046-055>057-062-063-091900-
EAST-CENTRAL ILLINOIS

CITY           SKY/WX    TMP DP  RH WIND       PRES   REMARKS
CHAMPAIGN      PTSUNNY   77  60  55 NW10      29.99S
MATTOON        MOSUNNY   80  60  50 W9        29.98F HX  81
$$

ILZ079-100>102-091900-
SOUTHWEST ILLINOIS

CITY           SKY/WX    TMP DP  RH WIND       PRES   REMARKS
ALTON          MOSUNNY   79  68  69 W6        30.00F HX  81
BELLEVILLE     MOSUNNY   83  63  50 NW6       29.99F HX  84
CAHOKIA*       PTSUNNY   84  59  42 N12       29.99F HX  84
SPARTA*        MOSUNNY   79  61  53 W7        30.02S HX  80
$$

ILZ064>066-069>071-074>076-080>082-084>086-088>090-092>094-091900-
SOUTH-CENTRAL ILLINOIS

CITY           SKY/WX    TMP DP  RH WIND       PRES   REMARKS
CARBONDALE     MOSUNNY   84  60  44 VRB7      30.01S HX  84
6HR MIN TEMP:  67; 6HR MAX TEMP:  84;

MARION         MOSUNNY   84  64  51 W8        30.02S HX  86
MT. VERNON     PTSUNNY   82  63  51 W5        30.00F HX  83
SALEM*         MOSUNNY   84  64  50 W9        30.00S HX  85
$$

ILZ067-068-072-073-078-083-087-091-091900-
SOUTHEAST ILLINOIS

CITY           SKY/WX    TMP DP  RH WIND       PRES   REMARKS
FLORA*         SUNNY     81  61  49 W10       29.99S HX  82
HARRISBURG*    MOSUNNY   81  59  47 SW8       30.01F HX  81
$$

ABBREVIATIONS USED IN REMARKS
   TC - TEMPERATURE IN CELSIUS
  WCI - WIND CHILL INDEX
   HX - HEAT INDEX
  VSB - VISIBILITY
$$




USA.gov is the U.S. government's official web portal to all federal, state and local government web resources and services.